Flight Track Log - Related Links

Times and Time Zones

All times are in EDT time to prevent confusion due to time zone crossing. See the EGF3016 flight status page for this flight to view local times or setup timezone preferences in your user account.

Time Position Orientation Groundspeed Altitude Reporting Facility
EDT Latitude Longitude Course Direction KTS MPH feet Rate Location/Type
Mon 08:10:21 AM 42.5375 -92.3628 95° East 138 159 2,400  Level Chicago Center
Mon 08:11:23 AM 42.5211 -92.2967 109° East 208 239 4,400 1,984 Climbing Chicago Center
Mon 08:12:25 AM 42.5239 -92.2067 88° East 231 266 6,500 2,098 Climbing Chicago Center
Mon 08:13:26 AM 42.5247 -92.1086 89° East 249 287 8,700 2,244 Climbing Chicago Center
Mon 08:14:28 AM 42.5258 -91.9839 89° East 272 313 11,100 1,742 Climbing Chicago Center
Mon 08:15:00 AM 42.4768 -91.6752 95° East  Level Estimated
Mon 08:15:30 AM 42.5264 -91.8675 90° East 300 345 12,300  Level Chicago Center
Mon 08:16:32 AM 42.5264 -91.7428 90° East 327 376 14,000 1,597 Climbing Chicago Center
Mon 08:17:34 AM 42.5272 -91.6125 89° East 345 397 15,600 1,645 Climbing Chicago Center
Mon 08:18:36 AM 42.5275 -91.4508 90° East 364 419 17,400 1,392 Climbing Chicago Center
Mon 08:19:39 AM 42.5267 -91.3122 90° East 373 429 18,500 1,248 Climbing Chicago Center
Mon 08:20:41 AM 42.5267 -91.1708 90° East 378 435 20,000 1,210 Climbing Chicago Center
Mon 08:21:43 AM 42.5256 -91.0233 91° East 393 452 21,000 484 Climbing Chicago Center
Mon 08:22:45 AM 42.5253 -90.8283 90° East 433 498 21,000  Level Chicago Center
Mon 08:23:47 AM 42.5253 -90.6561 90° East 458 527 21,000  Level Chicago Center
Mon 08:24:49 AM 42.5231 -90.4842 91° East 460 529 21,000  Level Chicago Center
Mon 08:25:51 AM 42.5219 -90.3147 90° East 456 525 21,000  Level Chicago Center
Mon 08:26:53 AM 42.5214 -90.1439 90° East 456 525 21,000  Level Chicago Center
Mon 08:27:55 AM 42.5192 -89.9411 91° East 455 524 21,000  Level Chicago Center
Mon 08:28:57 AM 42.5175 -89.7828 91° East 453 521 21,000 -484 Level Chicago Center
Mon 08:29:59 AM 42.5164 -89.6267 91° East 424 488 20,000 -1,258 Descending Chicago Center
Mon 08:31:01 AM 42.5122 -89.4414 92° East 413 475 18,400 -1,161 Descending Chicago Center
Mon 08:32:03 AM 42.5097 -89.2956 91° East 395 455 17,600 -1,065 Descending Chicago Center
Mon 08:33:05 AM 42.4914 -89.1575 100° East 377 434 16,200 -1,317 Descending Chicago Center
Mon 08:34:06 AM 42.4656 -89.0147 104° East 389 448 14,900 -1,610 Descending Chicago Center
Mon 08:35:08 AM 42.4408 -88.8692 103° East 397 457 12,900 -2,226 Descending Chicago Center
Mon 08:36:10 AM 42.4117 -88.7053 103° East 379 436 10,300 -995 Descending Chicago Center
Mon 08:41:28 AM 42.2630 -88.2420 103° East 100 115 6,600 -687 Descending FlightAware ADS-B
Mon 08:41:33 AM 42.2590 -88.2370 137° Southeast 100 115 6,600  Level FlightAware ADS-B
Mon 08:41:58 AM 42.2370 -88.2120 140° Southeast 266 306 6,600 -327 Level FlightAware ADS-B
Mon 08:42:28 AM 42.2100 -88.1820 141° Southeast 230 265 6,300 -514 Descending FlightAware ADS-B
Mon 08:42:33 AM 42.2070 -88.1790 143° Southeast 230 265 6,300 -800 Level FlightAware ADS-B
Mon 08:42:43 AM 42.1970 -88.1680 141° Southeast 233 268 6,100 -1,125 Descending FlightAware ADS-B
Mon 08:42:49 AM 42.1950 -88.1650 132° Southeast 233 268 6,000 -1,200 Descending FlightAware ADS-B
Mon 08:43:13 AM 42.1740 -88.1410 140° Southeast 230 265 5,500 -1,224 Descending FlightAware ADS-B
Mon 08:43:38 AM 42.1560 -88.1200 139° Southeast 231 266 5,000 -1,320 Descending FlightAware ADS-B
Mon 08:44:03 AM 42.1340 -88.0950 140° Southeast 226 260 4,400 -1,200 Descending FlightAware ADS-B
Mon 08:44:23 AM 42.1210 -88.0810 141° Southeast 213 245 4,100 -1,371 Descending FlightAware ADS-B
Mon 08:44:38 AM 42.1070 -88.0650 140° Southeast 211 243 3,600 -1,500 Descending FlightAware ADS-B
Mon 08:45:03 AM 42.0890 -88.0450 140° Southeast 204 235 3,100 -600 Descending FlightAware ADS-B
Mon 08:45:28 AM 42.0730 -88.0280 142° Southeast 204 235 3,100 -1,103 Level FlightAware ADS-B
Mon 08:46:30 AM 42.0206 -87.9672 142° Southeast 186 214 1,500 -871 Descending Chicago Center
Mon 08:47:32 AM 41.9936 -87.9367 140° Southeast 172 198 1,300 -194 Descending Chicago Center

Login

Don't have an account? Register now (free) for customized features, flight alerts, and more!